N5TM-4 Weather Reports


Display with metric or nautical units.
time (UTC)temp
F
wind
direction
speed
MPH
gust
MPH
rain 1hr
in
rain 24hr
in
rain mn
in
humidity
%
barometer
mb
20260509184039 92 178 1.0 5.0 0.00 0.00 0.00 55 1009.2
20260509183538 91 265 0.0 4.0 0.00 0.00 0.00 57 1009.4
20260509183039 90 170 0.0 4.0 0.00 0.00 0.00 57 1009.5
20260509182537 89 246 0.0 5.0 0.00 0.00 0.00 58 1009.6
20260509182035 88 155 0.0 5.0 0.00 0.00 0.00 61 1009.6
20260509181538 88 182 1.0 5.0 0.00 0.00 0.00 60 1009.7
20260509181035 88 188 1.0 7.0 0.00 0.00 0.00 62 1009.7
20260509180535 88 166 4.0 7.0 0.00 0.00 0.00 60 1009.8
20260509180035 89 174 0.0 7.0 0.00 0.00 0.00 59 1010.0
20260509175534 89 312 1.0 7.0 0.00 0.00 0.00 61 1010.1
20260509175033 89 227 1.0 9.0 0.00 0.00 0.00 62 1010.1
20260509174532 88 149 0.0 9.0 0.00 0.00 0.00 64 1010.2
20260509174031 87 116 2.0 8.0 0.00 0.00 0.00 66 1010.3
20260509173532 86 189 4.0 9.0 0.00 0.00 0.00 65 1010.4
20260509173028 86 187 3.0 9.0 0.00 0.00 0.00 68 1010.5
20260509172527 85 183 1.0 11.0 0.00 0.00 0.00 71 1010.4
20260509172027 84 151 6.0 11.0 0.00 0.00 0.00 70 1010.4
20260509171535 84 138 3.0 8.0 0.00 0.00 0.00 70 1010.5
20260509171026 84 173 2.0 7.0 0.00 0.00 0.00 70 1010.5
20260509170528 84 173 4.0 7.0 0.00 0.00 0.00 73 1010.8
20260509170030 84 148 1.0 6.0 0.00 0.00 0.00 73 1010.8
20260509165525 84 162 1.0 6.0 0.00 0.00 0.00 72 1010.9
20260509165026 84 159 1.0 5.0 0.00 0.00 0.00 74 1010.8
20260509164522 84 171 1.0 5.0 0.00 0.00 0.00 74 1010.8
20260509164024 83 163 1.0 5.0 0.00 0.00 0.00 77 1010.8
20260509163518 81 100 1.0 4.0 0.00 0.00 0.00 78 1010.9
20260509163017 80 15 0.0 2.0 0.00 0.00 0.00 79 1010.8
20260509162516 80 11 0.0 2.0 0.00 0.00 0.00 80 1010.8
20260509162016 80 11 0.0 2.0 0.00 0.00 0.00 81 1010.8
20260509161515 80 11 1.0 4.0 0.00 0.00 0.00 82 1010.7
20260509161013 79 355 0.0 4.0 0.00 0.00 0.00 82 1010.8
20260509160513 79 9 1.0 3.0 0.00 0.00 0.00 83 1010.8
20260509160013 79 157 0.0 3.0 0.00 0.00 0.00 83 1010.8
20260509155513 78 157 0.0 3.0 0.00 0.00 0.00 83 1010.9
20260509155011 78 157 0.0 2.0 0.00 0.00 0.00 84 1010.8
20260509154516 78 157 0.0 2.0 0.00 0.00 0.00 85 1010.8
20260509154011 78 157 0.0 2.0 0.00 0.00 0.00 85 1010.7
20260509153511 78 157 0.0 2.0 0.00 0.00 0.00 85 1010.8
20260509153009 78 157 0.0 3.0 0.00 0.00 0.00 86 1010.6
20260509152509 78 157 0.0 3.0 0.00 0.00 0.00 86 1010.6
20260509152009 78 157 0.0 2.0 0.00 0.00 0.00 87 1010.8
20260509151507 77 157 0.0 3.0 0.00 0.00 0.00 87 1010.8
20260509151006 77 157 1.0 3.0 0.00 0.00 0.00 87 1010.6
20260509150507 77 157 0.0 3.0 0.00 0.00 0.00 87 1010.6
20260509150015 77 157 0.0 3.0 0.00 0.00 0.00 88 1010.6
20260509145505 77 157 0.0 3.0 0.00 0.00 0.00 89 1010.4
20260509145004 76 157 1.0 3.0 0.00 0.00 0.00 89 1010.4
20260509144502 76 157 1.0 2.0 0.00 0.00 0.00 89 1010.4
20260509144001 76 157 0.0 2.0 0.00 0.00 0.00 90 1010.2
20260509143501 76 157 0.0 2.0 0.00 0.00 0.00 90 1010.2
20260509143001 76 157 0.0 1.0 0.00 0.00 0.00 90 1010.2
20260509142600 75 157 0.0 2.0 0.00 0.00 0.00 91 1010.1
20260509142059 75 157 0.0 2.0 0.00 0.00 0.00 92 1010.0
20260509141600 75 157 0.0 1.0 0.00 0.00 0.00 92 1009.8
20260509141100 75 157 0.0 2.0 0.00 0.00 0.00 92 1009.9
20260509140558 75 157 0.0 3.0 0.00 0.00 0.00 91 1009.8
20260509140104 75 157 1.0 5.0 0.00 0.00 0.00 91 1009.6
20260509135558 75 157 1.0 5.0 0.00 0.00 0.00 92 1009.6
20260509135057 75 157 1.0 3.0 0.00 0.00 0.00 92 1009.9
20260509134626 75 157 0.0 1.0 0.00 0.00 0.00 92 1010.0
20260509134059 75 157 0.0 1.0 0.00 0.00 0.00 92 1010.3
20260509133557 75 157 0.0 5.0 0.00 0.00 0.00 92 1010.6
20260509133059 75 157 2.0 5.0 0.00 0.00 0.00 92 1010.5
20260509132656 75 157 2.0 5.0 0.00 0.00 0.00 93 1010.4
20260509132056 75 149 0.0 3.0 0.00 0.00 0.00 93 1010.8
20260509131555 75 149 1.0 5.0 0.00 0.00 0.00 93 1010.7
20260509131054 74 148 1.0 5.0 0.00 0.00 0.00 93 1010.8
20260509130554 74 148 1.0 2.0 0.00 0.00 0.00 94 1011.0
20260509130054 74 148 0.0 1.0 0.00 0.00 0.00 94 1011.3
20260509125553 74 148 0.0 2.0 0.00 0.00 0.00 94 1011.1
20260509125051 74 148 0.0 3.0 0.00 0.00 0.00 94 1010.7
20260509124551 74 148 0.0 3.0 0.00 0.00 0.00 94 1010.5
20260509124050 74 148 1.0 3.0 0.00 0.00 0.00 94 1010.6
20260509123549 74 148 0.0 2.0 0.00 0.00 0.00 94 1010.7
20260509123051 74 148 0.0 1.0 0.00 0.00 0.00 94 1010.7
20260509122549 74 148 0.0 1.0 0.00 0.00 0.00 94 1010.5
20260509122048 73 148 0.0 1.0 0.00 0.00 0.00 94 1010.5
20260509121552 73 148 0.0 1.0 0.00 0.00 0.00 94 1010.6
20260509121049 73 148 0.0 1.0 0.00 0.00 0.00 94 1010.7
20260509120549 73 148 0.0 1.0 0.00 0.00 0.00 94 1010.7
20260509120049 73 148 0.0 1.0 0.00 0.00 0.00 94 1010.6
20260509115547 73 148 0.0 1.0 0.00 0.00 0.00 94 1010.6
20260509115047 73 148 0.0 0.0 0.00 0.00 0.00 94 1010.2
20260509114547 73 148 0.0 2.0 0.00 0.00 0.00 94 1010.3
20260509114047 73 148 0.0 2.0 0.00 0.00 0.00 93 1010.5
20260509113547 73 148 0.0 1.0 0.00 0.00 0.00 93 1010.5
20260509113051 73 148 0.0 2.0 0.00 0.00 0.00 93 1010.4
20260509112548 73 148 0.0 2.0 0.00 0.00 0.00 93 1010.4
20260509112046 73 148 0.0 2.0 0.00 0.00 0.00 93 1010.5
20260509111546 73 148 1.0 2.0 0.00 0.00 0.00 93 1010.4
20260509111045 73 148 1.0 2.0 0.00 0.00 0.00 93 1010.3
20260509110548 73 148 0.0 2.0 0.00 0.00 0.00 93 1010.2
20260509110045 73 148 0.0 1.0 0.00 0.00 0.00 93 1010.1
20260509105545 73 148 0.0 1.0 0.00 0.00 0.00 93 1010.0
20260509105044 73 148 0.0 1.0 0.00 0.00 0.00 93 1009.9
20260509104544 73 148 0.0 2.0 0.00 0.00 0.00 93 1009.8
20260509104043 73 148 0.0 2.0 0.00 0.00 0.00 93 1009.8
20260509103543 73 148 0.0 3.0 0.00 0.00 0.00 93 1009.7
20260509103044 73 148 1.0 3.0 0.00 0.00 0.00 93 1009.7
20260509102543 73 148 1.0 2.0 0.00 0.00 0.00 93 1009.8
20260509102043 73 148 0.0 1.0 0.00 0.00 0.00 93 1009.9
20260509101551 73 148 0.0 2.0 0.00 0.00 0.00 93 1010.0
20260509101042 73 148 0.0 2.0 0.00 0.00 0.00 93 1009.8
20260509100542 73 148 0.0 1.0 0.00 0.00 0.00 93 1009.8
20260509100042 74 148 0.0 1.0 0.00 0.00 0.00 93 1009.8
20260509095542 74 148 0.0 1.0 0.00 0.00 0.00 93 1009.7
20260509095042 74 148 0.0 1.0 0.00 0.00 0.00 93 1009.6
20260509094543 74 148 0.0 1.0 0.00 0.00 0.00 93 1009.5
20260509094041 74 148 0.0 1.0 0.00 0.00 0.00 93 1009.5
20260509093540 74 148 0.0 1.0 0.00 0.00 0.00 93 1009.4
20260509093041 74 148 0.0 1.0 0.00 0.00 0.00 93 1009.4
20260509092540 74 148 0.0 1.0 0.00 0.00 0.00 93 1009.4
20260509092043 74 148 0.0 1.0 0.00 0.00 0.00 93 1009.5
20260509091540 74 148 0.0 1.0 0.00 0.00 0.00 93 1009.7
20260509091043 74 148 0.0 0.0 0.00 0.00 0.00 93 1009.9
20260509090539 74 148 0.0 1.0 0.00 0.00 0.00 93 1009.9
20260509090039 74 148 0.0 1.0 0.00 0.00 0.00 93 1010.0
20260509085539 74 148 0.0 2.0 0.00 0.00 0.00 93 1009.9
20260509085039 74 148 0.0 2.0 0.00 0.00 0.00 93 1009.9
20260509084539 74 148 0.0 2.0 0.00 0.00 0.00 93 1010.0
20260509084039 74 148 0.0 1.0 0.00 0.00 0.00 93 1009.9
20260509083537 74 148 0.0 1.0 0.00 0.00 0.00 93 1009.7
20260509083045 74 148 0.0 1.0 0.00 0.00 0.00 93 1009.8
20260509082537 74 148 0.0 1.0 0.00 0.00 0.00 93 1009.7
20260509082037 74 148 0.0 2.0 0.00 0.00 0.00 93 1009.8
20260509081538 74 148 0.0 2.0 0.00 0.00 0.00 93 1009.6
20260509081038 74 148 0.0 2.0 0.00 0.00 0.00 93 1009.6
20260509080537 74 148 0.0 2.0 0.00 0.00 0.00 93 1009.7
20260509080037 74 148 0.0 3.0 0.00 0.00 0.00 93 1009.7
20260509075538 74 148 0.0 3.0 0.00 0.00 0.00 93 1009.8
20260509075034 74 148 0.0 3.0 0.00 0.00 0.00 93 1009.7
20260509074531 74 148 1.0 3.0 0.00 0.00 0.00 93 1009.7
20260509074029 74 148 1.0 5.0 0.00 0.00 0.00 93 1009.6
20260509073531 74 163 3.0 7.0 0.00 0.00 0.00 93 1009.4
20260509073027 74 165 3.0 7.0 0.00 0.00 0.00 93 1009.5
20260509072527 74 146 2.0 5.0 0.00 0.00 0.00 93 1009.4
20260509072028 74 134 2.0 5.0 0.00 0.00 0.00 93 1009.7
20260509071525 74 161 3.0 5.0 0.00 0.00 0.00 93 1009.9
20260509071025 74 132 2.0 4.0 0.00 0.00 0.00 93 1009.9
20260509070526 74 129 1.0 3.0 0.00 0.00 0.00 93 1010.1
20260509070023 74 129 1.0 2.0 0.00 0.00 0.00 93 1010.1
20260509065522 74 129 0.0 2.0 0.00 0.00 0.00 92 1010.1
20260509065022 74 129 0.0 2.0 0.00 0.00 0.00 92 1010.2
20260509064520 74 129 0.0 2.0 0.00 0.00 0.00 93 1010.1
20260509064021 74 129 0.0 1.0 0.00 0.00 0.00 92 1010.2
20260509063521 74 129 0.0 2.0 0.00 0.00 0.00 93 1010.2
20260509063018 74 129 0.0 2.0 0.00 0.00 0.00 93 1010.0
20260509062517 74 129 0.0 2.0 0.00 0.00 0.00 92 1010.2
20260509062018 74 129 0.0 2.0 0.00 0.00 0.00 92 1010.3
20260509061516 74 129 0.0 3.0 0.00 0.00 0.00 92 1010.4
20260509061016 74 129 0.0 3.0 0.00 0.00 0.00 92 1010.3
20260509060516 74 129 0.0 3.0 0.00 0.00 0.00 92 1010.2
20260509060016 74 129 1.0 3.0 0.00 0.00 0.00 92 1010.2
20260509055515 74 129 1.0 4.0 0.00 0.00 0.00 92 1010.3
20260509055014 74 129 1.0 4.0 0.00 0.00 0.00 92 1010.4
20260509054513 74 124 2.0 4.0 0.00 0.00 0.00 92 1010.5
20260509054013 74 115 1.0 4.0 0.00 0.00 0.00 92 1010.4
20260509053514 74 114 0.0 3.0 0.00 0.00 0.00 92 1010.4
20260509053013 74 114 1.0 3.0 0.00 0.00 0.00 92 1010.3
20260509052514 74 96 0.0 4.0 0.00 0.00 0.00 92 1010.4
20260509052011 74 96 1.0 4.0 0.00 0.00 0.00 92 1010.4
20260509051514 73 118 1.0 4.0 0.00 0.00 0.00 92 1010.4
20260509051009 73 117 1.0 3.0 0.00 0.00 0.00 91 1010.4
20260509050508 73 117 0.0 4.0 0.00 0.00 0.00 91 1010.4
20260509050006 73 117 1.0 4.0 0.00 0.00 0.00 91 1010.5
20260509045507 73 113 0.0 4.0 0.00 0.00 0.00 91 1010.4
20260509045006 73 114 2.0 6.0 0.00 0.00 0.00 91 1010.4
20260509044505 73 116 2.0 6.0 0.00 0.00 0.00 91 1010.5
20260509044006 73 119 1.0 4.0 0.00 0.00 0.00 91 1010.6
20260509043508 73 119 1.0 4.0 0.00 0.00 0.00 91 1010.6
20260509043005 73 165 1.0 5.0 0.00 0.00 0.00 91 1010.6
20260509042505 73 165 1.0 5.0 0.00 0.00 0.00 91 1010.6
20260509042005 73 168 2.0 5.0 0.00 0.00 0.00 91 1010.5
20260509041505 73 146 2.0 4.0 0.00 0.00 0.00 91 1010.5
20260509041005 73 99 1.0 4.0 0.00 0.00 0.00 91 1010.5
20260509040504 73 151 1.0 5.0 0.00 0.00 0.00 91 1010.5
20260509040005 73 151 1.0 6.0 0.00 0.00 0.00 91 1010.4
20260509035508 73 151 2.0 6.0 0.00 0.00 0.00 91 1010.3
20260509035004 73 117 1.0 4.0 0.00 0.00 0.00 91 1010.3
20260509034517 73 117 0.0 3.0 0.00 0.00 0.00 91 1010.3
20260509034004 73 116 0.0 4.0 0.00 0.00 0.00 90 1010.1
20260509033503 73 115 1.0 4.0 0.00 0.00 0.00 90 1010.1
20260509033004 73 130 1.0 3.0 0.00 0.00 0.00 90 1010.0
20260509032505 73 130 1.0 4.0 0.00 0.00 0.00 90 1010.0
20260509032005 73 130 1.0 4.0 0.00 0.00 0.00 90 1010.0
20260509031505 73 118 0.0 3.0 0.00 0.00 0.00 90 1010.0
20260509031003 73 118 1.0 3.0 0.00 0.00 0.00 90 1010.1
20260509030503 73 118 1.0 3.0 0.00 0.00 0.00 90 1010.0
20260509030002 73 119 1.0 3.0 0.00 0.00 0.00 90 1009.8
20260509025503 73 118 1.0 3.0 0.00 0.00 0.00 90 1010.0
20260509025003 73 118 1.0 3.0 0.00 0.00 0.00 90 1010.1
20260509024502 73 123 0.0 3.0 0.00 0.00 0.00 89 1010.1
20260509024005 73 123 1.0 3.0 0.00 0.00 0.00 89 1009.9
20260509023501 73 123 0.0 4.0 0.00 0.00 0.00 89 1009.9
20260509023002 73 123 1.0 4.0 0.00 0.00 0.00 89 1009.7
20260509022502 73 127 1.0 3.0 0.00 0.00 0.00 89 1009.7
20260509022002 73 94 1.0 3.0 0.00 0.00 0.00 89 1009.7
20260509021502 73 90 0.0 3.0 0.00 0.00 0.00 89 1009.6
20260509021001 73 90 1.0 3.0 0.00 0.00 0.00 89 1009.3
20260509020500 73 90 0.0 3.0 0.00 0.00 0.00 89 1009.3
20260509020001 73 94 0.0 3.0 0.00 0.00 0.00 89 1009.3
20260509015601 73 94 0.0 3.0 0.00 0.00 0.00 89 1009.3
20260509015101 73 94 0.0 3.0 0.00 0.00 0.00 89 1009.4
20260509014600 73 94 1.0 3.0 0.00 0.00 0.00 89 1009.3
20260509014100 73 94 0.0 3.0 0.00 0.00 0.00 89 1009.3
20260509013559 73 92 0.0 7.0 0.00 0.00 0.00 89 1009.2
20260509013100 73 98 2.0 7.0 0.00 0.00 0.00 89 1009.1
20260509012559 73 125 1.0 3.0 0.00 0.00 0.00 89 1009.2
20260509012101 73 126 0.0 2.0 0.00 0.00 0.00 89 1009.2
20260509011601 73 126 0.0 6.0 0.00 0.00 0.00 88 1009.2
20260509011058 73 126 0.0 6.0 0.00 0.00 0.00 88 1009.3
20260509010558 73 111 2.0 6.0 0.00 0.00 0.00 88 1009.2
20260509010104 73 96 1.0 6.0 0.00 0.00 0.00 88 1009.2
20260509005558 73 79 2.0 6.0 0.00 0.00 0.00 88 1009.1
20260509005057 73 112 2.0 4.0 0.00 0.00 0.00 88 1009.0
20260509004621 73 121 1.0 4.0 0.00 0.00 0.00 88 1009.0
20260509004057 73 118 2.0 4.0 0.00 0.00 0.00 88 1009.0
20260509003559 73 118 1.0 4.0 0.00 0.00 0.00 88 1009.1
20260509003057 73 106 2.0 4.0 0.00 0.00 0.00 88 1009.2
20260509002556 73 109 3.0 4.0 0.00 0.00 0.00 88 1009.1
20260509002056 73 113 1.0 4.0 0.00 0.00 0.00 88 1009.1
20260509001557 73 113 2.0 4.0 0.00 0.00 0.00 88 1009.2
20260509001056 73 113 2.0 6.0 0.00 0.00 0.00 88 1009.3
20260509000555 73 86 1.0 6.0 0.00 0.00 0.00 88 1009.2
20260509000056 73 125 2.0 5.0 0.00 0.00 0.00 88 1009.2
20260508235556 73 66 2.0 7.0 0.00 0.00 0.00 88 1009.3
20260508235059 73 95 2.0 7.0 0.00 0.00 0.00 88 1009.2
20260508234604 73 100 1.0 7.0 0.00 0.00 0.00 88 1009.1
20260508234058 73 43 2.0 7.0 0.00 0.00 0.00 88 1009.2
20260508233559 73 82 2.0 6.0 0.00 0.00 0.00 88 1009.1
20260508233054 73 117 2.0 6.0 0.00 0.00 0.00 88 1009.1
20260508232556 73 84 2.0 6.0 0.00 0.00 0.00 88 1009.3
20260508232055 73 90 2.0 4.0 0.00 0.00 0.00 88 1009.4
20260508231556 73 109 2.0 4.0 0.00 0.00 0.00 88 1009.5
20260508231053 73 146 1.0 7.0 0.00 0.00 0.00 88 1009.6
20260508230553 73 109 2.0 7.0 0.00 0.00 0.00 87 1009.6
20260508230055 73 108 1.0 5.0 0.00 0.00 0.00 87 1009.6
20260508225552 73 75 1.0 6.0 0.00 0.00 0.00 88 1009.4
20260508225052 73 71 3.0 7.0 0.00 0.00 0.00 87 1009.4
20260508224553 73 132 2.0 9.0 0.00 0.00 0.00 87 1009.4
20260508224051 73 154 3.0 9.0 0.00 0.00 0.00 87 1009.3
20260508223551 73 103 0.0 6.0 0.00 0.00 0.00 87 1009.3
20260508223053 73 108 2.0 6.0 0.00 0.00 0.00 87 1009.4
20260508222550 73 38 1.0 4.0 0.00 0.00 0.00 87 1009.4
20260508222049 73 116 2.0 6.0 0.00 0.00 0.00 87 1009.4
20260508221551 73 161 1.0 7.0 0.00 0.00 0.00 87 1009.4
20260508221049 73 121 3.0 7.0 0.00 0.00 0.00 87 1009.4
20260508220548 73 83 1.0 5.0 0.00 0.00 0.00 87 1009.5
20260508220049 73 90 1.0 6.0 0.00 0.00 0.00 87 1009.5
20260508215548 73 79 1.0 6.0 0.00 0.00 0.00 87 1009.5
20260508215049 73 121 1.0 7.0 0.00 0.00 0.00 87 1009.6
20260508214601 73 131 3.0 7.0 0.00 0.00 0.00 86 1009.6
20260508214047 74 111 1.0 7.0 0.00 0.00 0.00 86 1009.6
20260508213547 74 113 1.0 5.0 0.00 0.00 0.00 87 1009.5
20260508213047 74 42 2.0 7.0 0.00 0.00 0.00 87 1009.5
20260508212546 73 115 2.0 7.0 0.00 0.00 0.00 87 1009.7
20260508212045 73 152 3.0 7.0 0.00 0.00 0.00 86 1009.9
20260508211544 74 140 2.0 5.0 0.00 0.00 0.00 86 1010.0
20260508211046 74 117 2.0 6.0 0.00 0.00 0.00 86 1010.0
20260508210543 74 53 1.0 4.0 0.00 0.00 0.00 87 1010.0
20260508210043 73 83 1.0 4.0 0.00 0.00 0.00 87 1010.0
20260508205540 73 113 1.0 3.0 0.00 0.00 0.00 87 1010.0
20260508205040 73 113 0.0 4.0 0.00 0.00 0.00 87 1010.2
20260508204538 73 117 1.0 5.0 0.00 0.00 0.00 87 1010.0
20260508204036 73 160 2.0 5.0 0.00 0.00 0.00 87 1010.1
20260508203535 73 100 2.0 8.0 0.00 0.00 0.00 87 1010.2
20260508203036 73 96 3.0 8.0 0.00 0.00 0.00 87 1010.2
20260508202536 73 105 3.0 6.0 0.00 0.00 0.00 88 1010.1
20260508202034 73 101 3.0 8.0 0.00 0.00 0.00 88 1010.1
20260508201533 73 115 3.0 8.0 0.00 0.00 0.00 89 1010.3
20260508201031 72 166 4.0 8.0 0.00 0.00 0.00 90 1010.3
20260508200530 72 99 3.0 8.0 0.00 0.00 0.00 90 1010.2
20260508200035 71 117 3.0 5.0 0.00 0.00 0.00 90 1010.4
20260508195527 71 171 1.0 4.0 0.00 0.00 0.00 90 1010.7
20260508195026 71 82 0.0 5.0 0.00 0.00 0.00 91 1010.8
20260508194525 71 96 2.0 5.0 0.00 0.00 0.00 90 1010.7
20260508194027 71 40 1.0 5.0 0.00 0.00 0.00 91 1010.6
20260508193522 70 158 2.0 5.0 0.00 0.00 0.00 90 1010.9
20260508193021 70 161 0.0 2.0 0.00 0.00 0.00 90 1011.2
20260508192521 70 161 0.0 2.0 0.00 0.00 0.00 91 1011.3
20260508192020 70 161 0.0 2.0 0.00 0.00 0.00 91 1011.3
20260508191522 70 161 0.0 5.0 0.00 0.00 0.00 91 1011.4
20260508191020 70 161 0.0 5.0 0.00 0.00 0.00 90 1011.4
20260508190520 70 161 0.0 5.0 0.00 0.00 0.00 90 1011.4
20260508190038 69 161 1.0 5.0 0.00 0.00 0.00 90 1011.3
20260508185522 70 130 1.0 7.0 0.00 0.00 0.00 90 1011.2
20260508185019 70 140 1.0 7.0 0.00 0.00 0.00 90 1011.2
20260508184529 70 111 2.0 6.0 0.00 0.00 0.00 90 1011.2